FW1313 Weather Reports


Display with metric or nautical units.
time (UTC)temp
F
wind
direction
speed
MPH
gust
MPH
rain 1hr
in
rain 24hr
in
rain mn
in
humidity
%
barometer
mb
20260510100359 64 60 0.0 0.0 0.00 0.00 0.00 30 1014.2
20260510093359 64 75 0.0 0.0 0.00 0.00 0.00 34 1014.5
20260510090402 65 75 0.0 0.0 0.00 0.00 0.00 31 1014.8
20260510083359 64 75 0.0 0.0 0.00 0.00 0.00 28 1015.3
20260510080359 64 75 0.0 0.0 0.00 0.00 0.00 23 1015.9
20260510073359 64 75 0.0 0.0 0.00 0.00 0.00 18 1016.3
20260510070400 65 77 0.0 0.0 0.00 0.00 0.00 6 1016.7
20260510063359 64 76 0.0 0.0 0.00 0.00 0.00 4 1017.0
20260510060359 64 77 0.0 0.0 0.00 0.00 0.00 3 1017.2
20260510053359 64 77 0.0 0.0 0.00 0.00 0.00 5 1017.3
20260510050359 63 121 0.0 0.0 0.00 0.00 0.00 10 1017.5
20260510043359 63 121 0.0 0.0 0.00 0.00 0.00 15 1017.4
20260510040359 63 121 0.0 0.0 0.00 0.00 0.00 17 1017.3
20260510033402 64 91 0.0 0.0 0.00 0.00 0.00 14 1017.1
20260510030359 64 91 0.0 0.0 0.00 0.00 0.00 14 1016.5
20260510023359 63 96 0.0 0.0 0.00 0.00 0.00 20 1016.2
20260510020359 63 145 0.0 0.0 0.00 0.00 0.00 59 1016.1
20260510013359 64 136 0.0 0.0 0.00 0.00 0.00 56 1016.1
20260510010359 66 134 0.0 0.0 0.00 0.00 0.00 52 1016.2
20260510003359 67 167 0.0 0.0 0.00 0.00 0.00 48 1016.2
20260510000359 69 152 0.0 0.0 0.00 0.00 0.00 40 1016.1
20260509233359 70 207 0.0 0.0 0.00 0.00 0.00 40 1016.1
20260509230359 70 207 0.0 0.0 0.00 0.00 0.00 41 1016.1
20260509223359 70 174 0.0 0.0 0.00 0.00 0.00 41 1016.1
20260509220402 71 212 0.0 0.0 0.00 0.00 0.00 42 1016.2
20260509213402 72 148 0.0 0.0 0.00 0.00 0.00 41 1016.2
20260509210359 73 174 0.0 0.0 0.00 0.00 0.00 37 1016.2
20260509203359 76 203 0.0 1.0 0.00 0.00 0.00 41 1016.1
20260509200402 76 181 0.0 0.0 0.00 0.00 0.00 43 1015.9
20260509193402 74 184 0.0 0.0 0.00 0.00 0.00 44 1016.0
20260509190359 76 187 0.0 0.0 0.00 0.00 0.00 39 1016.1
20260509183359 78 167 0.0 0.0 0.00 0.00 0.00 17 1016.0
20260509180402 76 150 0.0 0.0 0.00 0.00 0.00 15 1015.9
20260509173359 76 143 0.0 0.0 0.00 0.00 0.00 18 1015.6
20260509170359 73 167 0.0 0.0 0.00 0.00 0.00 15 1015.2
20260509163359 70 159 0.0 0.0 0.00 0.00 0.00 17 1015.0
20260509160359 68 148 0.0 0.0 0.00 0.00 0.00 18 1014.8
20260509153359 67 109 0.0 0.0 0.00 0.00 0.00 20 1014.8
20260509150359 66 86 0.0 0.0 0.00 0.00 0.00 18 1014.8
20260509143359 65 86 0.0 0.0 0.00 0.00 0.00 13 1014.5
20260509140402 64 86 0.0 0.0 0.00 0.00 0.00 12 1014.3
20260509133359 64 86 0.0 0.0 0.00 0.00 0.00 8 1014.1
20260509130359 63 80 0.0 0.0 0.00 0.00 0.00 6 1014.0
20260509123359 64 80 0.0 0.0 0.00 0.00 0.00 5 1014.0
20260509120359 63 80 0.0 0.0 0.00 0.00 0.00 5 1014.2
20260509113359 63 81 0.0 0.0 0.00 0.00 0.00 6 1014.4
20260509110359 63 81 0.0 0.0 0.00 0.00 0.00 5 1014.4
20260509103359 62 79 0.0 0.0 0.00 0.00 0.00 6 1014.7